FALCON HEAVY R/B, 57480

Orbit data source: Space-Track

FALCON HEAVY R/B, 57480 is space debris in HEO originally from a launch on Sat, 29 Jul 2023 UTC launched from the Air Force Eastern Test Range (AFETR). Debris objects in space refer to the collection of defunct objects orbiting the Earth. Examples of debris include non-operational satellites, rocket bodies, and fragments generated from explosions, collisions, or faulty payload assembly.

Loading next visibility...
Identifier
57480, 2023-108B
Orbit
HEO
Country
Flag of USUS
Related business
Manufacturer
SpaceX
Mission
Spacecraft
Bus & Motor
F9ST2, Unknown motor
Mass
~4,000 kg wet, ~4,000 kg dry
Launch date (UTC)
2023-07-29 (3 years ago)
Launch vehicle
Unknown
Launch site
Air Force Eastern Test Range (AFETR)
Object type
Payload
Rocket body
Debris
Shape & HBR
Cyl, Unknown HBR
Radar Cross Section
49.816 m², Large (>1 m²)

Expand to show TLE details & history
Last TLE update: 1 day ago

TLE from 1 day ago
0 FALCON HEAVY R/B
1 57480U 23108B   26099.73310752 -.00000040  00000-0  00000-0 0  9997
2 57480  11.1920 100.0786 4946547  18.5994 354.5010  1.84353077 18181
Epoch: 2026-04-09T17:35Z
TLE epoch observation values (Epoch: 2026-04-09T17:35:40.489Z)
Latitude
0.00009°
Longitude
-1.80133°
Altitude
8,093.644 km
Speed
6.395 km/s
True Right ascension
06h 40m 22s
True Declination
0° 00' 00"
Sunlit
Object was in daylight at epoch
Visualization orbit readout
Latitude
Unknown
Longitude
Unknown
Altitude
Unknown
Speed
Unknown
Apparent Right ascension
Unknown
Apparent Declination
Unknown
Sunlit
N/A
Visualization observer readout
Local Sidereal Time
02:25:29
Azimuth
Unknown
Elevation
Unknown
Doppler factor
Unknown
Orbital elements
Apogee altitude
35,618.149 km
Perigee altitude
7,820.879 km
Semi-major axis
28,097.651 km
Eccentricity
0.49465
Inclination
11.192°
RAAN
100.0786°
Arg. of periapsis
18.5994°
True anomaly
341.50073°
Mean anomaly
354.501°
Eccentric anomaly
349.18115°
Mean motion
0.46083 °/min
Orbital period
781.2 mins
BSTAR
0
Loading maneuver chart data...
Computing Atmospheric mass density...
Loading historical data...
Loading historical data...
Loading historical data...
Loading historical data...
Loading historical data...
Loading historical data...
Loading historical data...
Other satellites on launch #108 in the year 2023 (2023-07-29 UTC)

Documentation

Showing up to 5 results
|